Location: Stara Lesna
(49.1528°N, 20.2911°E)
Time: 13:46:32
(UTC+02:00)

SL-16 R/B - Pass Details

Date: 21 September 2019
Orbit: 986 x 1006 km, 99.4° (Epoch: 18 October)

Event Time Altitude Azimuth Distance (km) Brightness Sun altitude
Exits shadow 03:24:47 23° 308° (NW) 1,986 4.0 -27.7°
Drops below altitude 10° 03:27:33 10° 328° (NNW) 2,779 4.9 -27.4°
Sets 03:30:20 0° 338° (NNW) 3,736 5.8 -27.0°
